Location: Dackenheim
(49.5215°N, 8.1854°E)
Time: 17:50:19
(UTC+00:00)

METEOR M2 - Visible Passes

Search period start: 07 March 2026 00:00
Search period end: 17 March 2026 00:00
Orbit: 817 x 824 km, 98.5° (Epoch: 7 March)

Date Brightness Start Highest point End Pass type
(mag) Time Alt. Az. Time Alt. Az. Time Alt. Az.
7 Mar ? 02:27:29 10° NE 02:30:35 15° E 02:33:41 10° ESE visible
7 Mar ? 04:06:01 10° NNE 04:11:26 88° WNW 04:16:50 10° SSW visible
8 Mar ? 03:45:24 10° NNE 03:50:46 65° ESE 03:56:06 10° S visible
9 Mar ? 03:24:52 10° NNE 03:30:02 44° E 03:35:09 10° S visible
9 Mar ? 05:05:16 10° N 05:10:01 33° WNW 05:14:44 10° SW visible
10 Mar ? 03:04:29 10° NNE 03:09:14 31° E 03:13:57 10° SSE visible
10 Mar ? 04:44:23 10° N 04:49:31 46° WNW 04:54:37 10° SW visible
11 Mar ? 02:44:18 10° NE 02:48:22 21° E 02:52:25 10° SE visible
11 Mar ? 04:23:36 10° N 04:28:57 65° WNW 04:34:16 10° SSW visible
12 Mar ? 02:24:30 10° NE 02:27:26 15° E 02:30:21 10° ESE visible
12 Mar ? 04:02:54 10° NNE 04:08:20 88° ESE 04:13:43 10° SSW visible
13 Mar ? 03:42:17 10° NNE 03:47:39 62° ESE 03:52:58 10° S visible
14 Mar ? 03:21:46 10° NNE 03:26:54 42° E 03:31:59 10° SSE visible
14 Mar ? 05:02:06 10° N 05:06:55 34° WNW 05:11:42 10° SW visible
15 Mar ? 03:01:24 10° NNE 03:06:05 29° E 03:10:44 10° SSE visible
15 Mar ? 04:41:15 10° N 04:46:24 48° WNW 04:51:32 10° SW visible
16 Mar ? 02:41:15 10° NE 02:45:13 20° E 02:49:09 10° SE visible
16 Mar ? 04:20:28 10° N 04:25:50 68° WNW 04:31:10 10° SSW visible
